Change the Weather History Date:

Monday, August 26, 2013

  Actual Average Record
Temperature  
Mean Temperature 82 °F -  
Max Temperature 95 °F 84 °F 100 °F (1983)
Min Temperature 69 °F 61 °F 42 °F (1964)
Cooling Degree Days 17    
Growing Degree Days 32 (Base 50)    
Moisture  
Dew Point 69 °F    
Average Humidity 68    
Maximum Humidity 94    
Minimum Humidity 41    
Precipitation  
Precipitation 0.00 in - - ()
Sea Level Pressure  
Sea Level Pressure 30.09 in    
Wind  
Wind Speed 9 mph (SSW)    
Max Wind Speed 14 mph    
Max Gust Speed 21 mph    
Visibility 9 miles    
Events      
Averages and records for this station are not official NWS values.
T = Trace of Precipitation, MM = Missing Value Source: NWS Daily Summary

Daily Weather History Graph

Daily Weather History Graph

Search for Another Location

Airport or City:

Trip Planner

Search our weather history database for the weather conditions in past years. The results will help you decide how hot, cold, wet, or windy it might be!

Date:

Astronomy

Aug. 26, 2013 Rise Set
Actual Time 6:34 AM CDT 7:55 PM CDT
Civil Twilight 6:05 AM CDT 8:23 PM CDT
Nautical Twilight 5:31 AM CDT 8:57 PM CDT
Astronomical Twilight 4:55 AM CDT 9:34 PM CDT
Moon 11:02 PM CDT 12:40 PM CDT
Length of Visible Light 14h 17m
Length of Day
13h 20m
Waning Gibbous, 66% of the Moon is Illuminated
Aug 26
Waning Gibbous
Aug 28
Last Quarter
Sep 5
New
Sep 12
First Quarter
Sep 19
Full

Hourly Weather History & Observations

Time (CDT) Temp. Heat Index Dew Point Humidity Pressure Visibility Wind Dir Wind Speed Gust Speed Precip Events Conditions
12:15 AM 77.0 °F - 68.0 °F 74% 30.14 in 10.0 mi South 10.4 mph - N/A   Clear
12:35 AM 77.0 °F - 68.0 °F 74% 30.14 in 10.0 mi South 11.5 mph - N/A   Clear
12:55 AM 77.0 °F - 68.0 °F 74% 30.14 in 10.0 mi South 10.4 mph - N/A   Clear
1:15 AM 75.2 °F - 68.0 °F 78% 30.14 in 10.0 mi South 10.4 mph - N/A   Clear
1:35 AM 75.2 °F - 68.0 °F 78% 30.13 in 10.0 mi South 9.2 mph - N/A   Clear
1:55 AM 75.2 °F - 68.0 °F 78% 30.13 in 10.0 mi SSW 9.2 mph - N/A   Clear
2:15 AM 73.4 °F - 68.0 °F 83% 30.13 in 10.0 mi SSW 8.1 mph - N/A   Clear
2:35 AM 73.4 °F - 68.0 °F 83% 30.13 in 10.0 mi SSW 9.2 mph - N/A   Clear
2:55 AM 71.6 °F - 68.0 °F 88% 30.13 in 10.0 mi SSW 6.9 mph - N/A   Clear
3:15 AM 71.6 °F - 68.0 °F 88% 30.13 in 9.0 mi SSW 6.9 mph - N/A   Clear
3:35 AM 71.6 °F - 68.0 °F 88% 30.13 in 9.0 mi SSW 6.9 mph - N/A   Clear
3:55 AM 69.8 °F - 68.0 °F 94% 30.13 in 8.0 mi South 6.9 mph - N/A   Clear
4:15 AM 69.8 °F - 68.0 °F 94% 30.13 in 8.0 mi South 6.9 mph - N/A   Clear
4:35 AM 69.8 °F - 68.0 °F 94% 30.13 in 7.0 mi South 6.9 mph - N/A   Clear
4:55 AM 69.8 °F - 68.0 °F 94% 30.13 in 7.0 mi South 6.9 mph - N/A   Partly Cloudy
5:15 AM 69.8 °F - 68.0 °F 94% 30.13 in 7.0 mi South 6.9 mph - N/A   Partly Cloudy
5:35 AM 69.8 °F - 68.0 °F 94% 30.13 in 6.0 mi South 6.9 mph - N/A   Clear
5:55 AM 69.8 °F - 68.0 °F 94% 30.13 in 6.0 mi South 5.8 mph - N/A   Clear
6:15 AM 69.8 °F - 68.0 °F 94% 30.13 in 6.0 mi SSW 6.9 mph - N/A   Clear
6:35 AM 69.8 °F - 68.0 °F 94% 30.14 in 4.0 mi South 6.9 mph - N/A   Clear
6:55 AM 69.8 °F - 68.0 °F 94% 30.14 in 4.0 mi South 6.9 mph - N/A   Clear
7:15 AM 69.8 °F - 68.0 °F 94% 30.14 in 4.0 mi South 6.9 mph - N/A   Clear
7:35 AM 71.6 °F - 68.0 °F 88% 30.15 in 4.0 mi South 5.8 mph - N/A   Clear
7:55 AM 73.4 °F - 69.8 °F 88% 30.15 in 5.0 mi SSW 5.8 mph - N/A   Clear
8:15 AM 75.2 °F - 69.8 °F 83% 30.15 in 5.0 mi SSW 6.9 mph - N/A   Haze
8:35 AM 77.0 °F - 69.8 °F 78% 30.15 in 6.0 mi SSW 6.9 mph - N/A   Haze
8:55 AM 78.8 °F - 71.6 °F 78% 30.14 in 9.0 mi SW 12.7 mph - N/A   Clear
9:15 AM 80.6 °F 84.6 °F 71.6 °F 74% 30.14 in 9.0 mi SW 10.4 mph - N/A   Clear
9:35 AM 82.4 °F 87.2 °F 71.6 °F 70% 30.14 in 9.0 mi SW 9.2 mph 16.1 mph N/A   Clear
9:55 AM 82.4 °F 87.2 °F 71.6 °F 70% 30.14 in 9.0 mi SW 11.5 mph - N/A   Clear
10:15 AM 84.2 °F 89.6 °F 71.6 °F 66% 30.14 in 9.0 mi WSW 12.7 mph - N/A   Clear
10:35 AM 84.2 °F 89.6 °F 71.6 °F 66% 30.14 in 9.0 mi SW 9.2 mph 17.3 mph N/A   Clear
10:55 AM 86.0 °F 91.8 °F 71.6 °F 62% 30.13 in 9.0 mi SW 11.5 mph 18.4 mph N/A   Clear
11:15 AM 87.8 °F 93.8 °F 71.6 °F 58% 30.13 in 10.0 mi SW 10.4 mph 17.3 mph N/A   Clear
11:35 AM 87.8 °F 93.8 °F 71.6 °F 58% 30.13 in 10.0 mi WSW 11.5 mph - N/A   Clear
11:55 AM 87.8 °F 93.8 °F 71.6 °F 58% 30.13 in 10.0 mi SW 8.1 mph 17.3 mph N/A   Clear
12:15 PM 89.6 °F 96.2 °F 71.6 °F 55% 30.12 in 10.0 mi SSW 11.5 mph 20.7 mph N/A   Clear
12:35 PM 89.6 °F 96.2 °F 71.6 °F 55% 30.11 in 10.0 mi SW 13.8 mph - N/A   Clear
12:55 PM 91.4 °F 98.4 °F 71.6 °F 52% 30.10 in 10.0 mi SSW 10.4 mph - N/A   Clear
1:15 PM 91.4 °F 98.4 °F 71.6 °F 52% 30.10 in 9.0 mi WSW 12.7 mph 18.4 mph N/A   Clear
1:35 PM 91.4 °F 98.4 °F 71.6 °F 52% 30.09 in 10.0 mi SW 10.4 mph - N/A   Clear
1:55 PM 93.2 °F 100.5 °F 71.6 °F 49% 30.08 in 10.0 mi SW 8.1 mph 15.0 mph N/A   Partly Cloudy
2:15 PM 93.2 °F 100.5 °F 71.6 °F 49% 30.08 in 10.0 mi SSW 8.1 mph 15.0 mph N/A   Clear
2:35 PM 93.2 °F 98.8 °F 69.8 °F 46% 30.07 in 10.0 mi SSW 9.2 mph 16.1 mph N/A   Partly Cloudy
2:55 PM 93.2 °F 98.8 °F 69.8 °F 46% 30.06 in 10.0 mi South 6.9 mph 18.4 mph N/A   Partly Cloudy
3:15 PM 93.2 °F 97.7 °F 68.0 °F 44% 30.06 in 10.0 mi SW 11.5 mph 18.4 mph N/A   Clear
3:35 PM 93.2 °F 98.8 °F 69.8 °F 46% 30.05 in 10.0 mi South 9.2 mph 16.1 mph N/A   Partly Cloudy
3:55 PM 93.2 °F 97.7 °F 68.0 °F 44% 30.05 in 9.0 mi SSW 5.8 mph 12.7 mph N/A   Partly Cloudy
4:15 PM 93.2 °F 97.7 °F 68.0 °F 44% 30.04 in 10.0 mi SW 8.1 mph 15.0 mph N/A   Scattered Clouds
4:35 PM 95.0 °F 99.5 °F 68.0 °F 41% 30.04 in 10.0 mi SSW 8.1 mph - N/A   Partly Cloudy
4:55 PM 93.2 °F 98.8 °F 69.8 °F 46% 30.04 in 10.0 mi SSW 9.2 mph - N/A   Clear
5:15 PM 93.2 °F 97.7 °F 68.0 °F 44% 30.04 in 10.0 mi SSW 9.2 mph 15.0 mph N/A   Clear
5:35 PM 93.2 °F 97.7 °F 68.0 °F 44% 30.04 in 9.0 mi SSW 10.4 mph - N/A   Clear
5:55 PM 93.2 °F 97.7 °F 68.0 °F 44% 30.03 in 10.0 mi SW 10.4 mph - N/A   Clear
6:15 PM 91.4 °F 95.4 °F 68.0 °F 46% 30.03 in 9.0 mi SSW 8.1 mph - N/A   Clear
6:35 PM 91.4 °F 95.4 °F 68.0 °F 46% 30.02 in 10.0 mi SSW 9.2 mph - N/A   Clear
6:55 PM 89.6 °F 93.4 °F 68.0 °F 49% 30.02 in 10.0 mi SSW 9.2 mph - N/A   Clear
7:15 PM 87.8 °F 91.4 °F 68.0 °F 52% 30.02 in 9.0 mi SSW 6.9 mph - N/A   Clear
7:35 PM 87.8 °F 91.4 °F 68.0 °F 52% 30.02 in 9.0 mi SW 5.8 mph - N/A   Clear
7:55 PM 86.0 °F 89.4 °F 68.0 °F 55% 30.02 in 10.0 mi SW 6.9 mph - N/A   Clear
8:15 PM 84.2 °F 87.3 °F 68.0 °F 58% 30.01 in 10.0 mi SSW 5.8 mph - N/A   Clear
8:35 PM 80.6 °F 83.2 °F 68.0 °F 65% 30.01 in 10.0 mi SSW 6.9 mph - N/A   Clear
8:55 PM 80.6 °F 83.2 °F 68.0 °F 65% 30.01 in 10.0 mi SSW 8.1 mph - N/A   Clear
9:15 PM 78.8 °F - 68.0 °F 69% 30.01 in 10.0 mi SSW 9.2 mph - N/A   Clear
9:35 PM 78.8 °F - 68.0 °F 69% 30.01 in 10.0 mi SSW 8.1 mph - N/A   Clear
9:55 PM 78.8 °F - 68.0 °F 69% 30.01 in 10.0 mi SSW 8.1 mph - N/A   Clear
10:15 PM 80.6 °F 83.2 °F 68.0 °F 65% 30.01 in 10.0 mi SSW 8.1 mph - N/A   Clear
10:35 PM 78.8 °F - 68.0 °F 69% 30.02 in 10.0 mi SSW 6.9 mph - N/A   Clear
10:55 PM 77.0 °F - 68.0 °F 74% 30.02 in 10.0 mi SSW 8.1 mph - N/A   Clear
11:15 PM 75.2 °F - 68.0 °F 78% 30.03 in 10.0 mi SSW 8.1 mph - N/A   Clear
11:35 PM 75.2 °F - 68.0 °F 78% 30.03 in 10.0 mi South 8.1 mph - N/A   Clear
11:55 PM 75.2 °F - 68.0 °F 78% 30.02 in 10.0 mi SSW 9.2 mph - N/A   Clear